• In Netherlands
  • List of Countries
  • For 7 days
  • Water Temperature
  • Satellite Maps
  • Weather Map
  • Weather Widgets
  • user-avatar
    Login

    Hourly Weather Plovdiv

    Today, 17 October, Tuesday

    Time Temperature Precipitation Wind Pressure Humidity
    00:00 +16°C° 0 mm 1 mps 747 mmHg 65%
    01:00 +16°C° 0 mm 1 mps 747 mmHg 65%
    02:00 +16°C° 0 mm 1 mps 747 mmHg 65%
    03:00 +15°C° 0 mm 1 mps 747 mmHg 65%
    04:00 +15°C° 0 mm 1 mps 747 mmHg 64%
    05:00 +15°C° 0 mm 1 mps 746 mmHg 63%
    06:00 +16°C° 0 mm 1 mps 746 mmHg 60%
    07:00 +18°C° 0 mm 1 mps 747 mmHg 57%
    08:00 +19°C° 0 mm 1 mps 747 mmHg 55%
    09:00 +21°C° 0 mm 1 mps 747 mmHg 47%
    10:00 +24°C° 0 mm 1 mps 747 mmHg 40%
    11:00 +26°C° 0 mm 1 mps 747 mmHg 32%
    12:00 +27°C° 0 mm 1 mps 746 mmHg 31%
    13:00 +27°C° 0 mm 1 mps 746 mmHg 30%
    14:00 +28°C° 0 mm 1 mps 746 mmHg 29%
    15:00 +26°C° 0 mm 1 mps 745 mmHg 34%
    16:00 +25°C° 0 mm 1 mps 745 mmHg 39%
    17:00 +24°C° 0 mm 1 mps 744 mmHg 44%
    18:00 +22°C° 0 mm 1 mps 744 mmHg 47%
    19:00 +21°C° 0 mm 1 mps 744 mmHg 50%
    20:00 +19°C° 0 mm 1 mps 744 mmHg 53%
    21:00 +19°C° 0 mm 1 mps 744 mmHg 53%
    22:00 +18°C° 0 mm 1 mps 744 mmHg 53%
    23:00 +18°C° 0 mm 1 mps 744 mmHg 53%

    Tomorrow, 18 October, Wednesday

    Time Temperature Precipitation Wind Pressure Humidity
    00:00 +18°C° 0 mm 1 mps 744 mmHg 53%
    01:00 +18°C° 0 mm 1 mps 744 mmHg 52%
    02:00 +16°C° 0 mm 1 mps 744 mmHg 52%
    03:00 +16°C° 0 mm 1 mps 744 mmHg 52%
    04:00 +16°C° 0 mm 1 mps 743 mmHg 52%
    05:00 +16°C° 0 mm 1 mps 743 mmHg 52%
    06:00 +18°C° 0 mm 1 mps 743 mmHg 51%
    07:00 +18°C° 0 mm 1 mps 743 mmHg 51%
    08:00 +19°C° 0 mm 1 mps 743 mmHg 50%
    09:00 +21°C° 0 mm 1 mps 743 mmHg 44%
    10:00 +24°C° 0 mm 1 mps 743 mmHg 38%
    11:00 +26°C° 0 mm 1 mps 743 mmHg 32%
    12:00 +26°C° 0 mm 1 mps 743 mmHg 31%
    13:00 +27°C° 0 mm 2 mps 742 mmHg 31%
    14:00 +27°C° 0 mm 2 mps 742 mmHg 30%
    15:00 +26°C° 0 mm 2 mps 741 mmHg 35%
    16:00 +24°C° 0 mm 1 mps 741 mmHg 40%
    17:00 +23°C° 0 mm 1 mps 741 mmHg 45%
    18:00 +21°C° 0 mm 1 mps 741 mmHg 48%
    19:00 +20°C° 0 mm 1 mps 741 mmHg 50%
    20:00 +19°C° 0 mm 1 mps 741 mmHg 53%
    21:00 +18°C° 0 mm 1 mps 741 mmHg 54%
    22:00 +18°C° 0 mm 1 mps 741 mmHg 54%
    23:00 +18°C° 0 mm 1 mps 741 mmHg 55%

    Day after tomorrow, 19 October, Thursday

    Time Temperature Precipitation Wind Pressure Humidity
    00:00 +18°C° 0 mm 1 mps 741 mmHg 55%
    01:00 +16°C° 0 mm 1 mps 741 mmHg 56%
    02:00 +16°C° 0 mm 1 mps 741 mmHg 56%
    03:00 +16°C° 0 mm 1 mps 740 mmHg 57%
    04:00 +16°C° 0 mm 1 mps 740 mmHg 57%
    05:00 +15°C° 0 mm 1 mps 740 mmHg 57%
    06:00 +16°C° 0 mm 1 mps 740 mmHg 56%
    07:00 +18°C° 0 mm 1 mps 740 mmHg 55%
    08:00 +19°C° 0 mm 1 mps 740 mmHg 54%
    09:00 +21°C° 0 mm 1 mps 740 mmHg 48%
    10:00 +23°C° 0 mm 1 mps 740 mmHg 42%
    11:00 +25°C° 0 mm 1 mps 741 mmHg 36%
    12:00 +26°C° 0 mm 1 mps 740 mmHg 34%
    13:00 +26°C° 0 mm 1 mps 740 mmHg 33%
    14:00 +27°C° 0 mm 2 mps 740 mmHg 32%
    15:00 +25°C° 0 mm 1 mps 739 mmHg 36%
    16:00 +24°C° 0 mm 1 mps 739 mmHg 41%
    17:00 +23°C° 0 mm 1 mps 739 mmHg 45%
    18:00 +21°C° 0 mm 1 mps 739 mmHg 48%
    19:00 +20°C° 0 mm 1 mps 739 mmHg 50%
    20:00 +19°C° 0 mm 1 mps 740 mmHg 53%
    21:00 +18°C° 0 mm 1 mps 740 mmHg 54%
    22:00 +18°C° 0 mm 1 mps 740 mmHg 54%
    23:00 +18°C° 0 mm 1 mps 740 mmHg 55%

    20 October, Friday

    Time Temperature Precipitation Wind Pressure Humidity
    00:00 +18°C° 0 mm 1 mps 740 mmHg 55%
    01:00 +16°C° 0 mm 1 mps 740 mmHg 55%
    02:00 +16°C° 0 mm 1 mps 740 mmHg 55%
    03:00 +16°C° 0 mm 1 mps 740 mmHg 55%
    04:00 +16°C° 0 mm 1 mps 740 mmHg 55%
    05:00 +16°C° 0 mm 1 mps 740 mmHg 55%
    06:00 +16°C° 0 mm 1 mps 740 mmHg 54%
    07:00 +18°C° 0 mm 1 mps 740 mmHg 53%
    08:00 +19°C° 0 mm 1 mps 741 mmHg 52%
    09:00 +21°C° 0 mm 1 mps 741 mmHg 46%
    10:00 +23°C° 0 mm 1 mps 741 mmHg 40%
    11:00 +26°C° 0 mm 1 mps 741 mmHg 34%
    12:00 +26°C° 0 mm 1 mps 741 mmHg 33%
    13:00 +27°C° 0 mm 1 mps 741 mmHg 32%
    14:00 +27°C° 0 mm 1 mps 740 mmHg 31%
    15:00 +26°C° 0 mm 1 mps 740 mmHg 36%
    16:00 +24°C° 0 mm 1 mps 740 mmHg 40%
    17:00 +23°C° 0 mm 1 mps 740 mmHg 45%
    18:00 +22°C° 0 mm 1 mps 740 mmHg 48%
    19:00 +21°C° 0 mm 1 mps 741 mmHg 51%
    20:00 +19°C° 0 mm 1 mps 741 mmHg 54%
    21:00 +19°C° 0 mm 1 mps 741 mmHg 54%
    22:00 +19°C° 0 mm 1 mps 741 mmHg 55%
    23:00 +18°C° 0 mm 1 mps 741 mmHg 56%

    21 October, Saturday

    Time Temperature Precipitation Wind Pressure Humidity
    00:00 +18°C° 0 mm 1 mps 741 mmHg 57%
    01:00 +18°C° 0 mm 1 mps 741 mmHg 58%
    02:00 +18°C° 0 mm 1 mps 741 mmHg 59%
    03:00 +16°C° 0 mm 1 mps 741 mmHg 59%
    04:00 +16°C° 0 mm 1 mps 741 mmHg 60%
    05:00 +16°C° 0 mm 1 mps 741 mmHg 61%
    06:00 +18°C° 0 mm 1 mps 741 mmHg 60%
    07:00 +18°C° 0 mm 1 mps 742 mmHg 59%
    08:00 +19°C° 0 mm 1 mps 742 mmHg 58%
    09:00 +21°C° 0 mm 1 mps 742 mmHg 52%
    10:00 +23°C° 0 mm 1 mps 742 mmHg 46%
    11:00 +25°C° 0 mm 1 mps 742 mmHg 40%
    12:00 +26°C° 0 mm 1 mps 741 mmHg 38%
    13:00 +26°C° 0 mm 1 mps 741 mmHg 37%
    14:00 +27°C° 0 mm 1 mps 740 mmHg 36%
    15:00 +25°C° 0 mm 1 mps 740 mmHg 40%
    16:00 +24°C° 0 mm 1 mps 740 mmHg 44%
    17:00 +23°C° 0 mm 1 mps 740 mmHg 49%
    18:00 +22°C° 0 mm 1 mps 740 mmHg 52%
    19:00 +20°C° 0 mm 1 mps 740 mmHg 55%
    20:00 +19°C° 0 mm 1 mps 740 mmHg 58%
    21:00 +19°C° 0 mm 1 mps 740 mmHg 58%
    22:00 +18°C° 0 mm 1 mps 740 mmHg 59%
    23:00 +18°C° 0 mm 1 mps 740 mmHg 60%

    22 October, Sunday

    Time Temperature Precipitation Wind Pressure Humidity
    00:00 +18°C° 0 mm 1 mps 740 mmHg 60%
    01:00 +16°C° 0 mm 1 mps 740 mmHg 60%
    02:00 +16°C° 0 mm 1 mps 740 mmHg 60%
    03:00 +16°C° 0 mm 1 mps 740 mmHg 59%
    04:00 +16°C° 0 mm 1 mps 740 mmHg 59%
    05:00 +15°C° 0 mm 2 mps 739 mmHg 59%
    06:00 +16°C° 0 mm 1 mps 740 mmHg 57%
    07:00 +18°C° 0 mm 1 mps 740 mmHg 56%
    08:00 +18°C° 0 mm 1 mps 740 mmHg 54%
    09:00 +21°C° 0 mm 1 mps 740 mmHg 47%
    10:00 +23°C° 0 mm 1 mps 740 mmHg 40%
    11:00 +25°C° 0 mm 1 mps 740 mmHg 33%
    12:00 +26°C° 0 mm 1 mps 739 mmHg 32%
    13:00 +26°C° 0 mm 1 mps 739 mmHg 31%
    14:00 +27°C° 0 mm 2 mps 738 mmHg 30%
    15:00 +25°C° 0 mm 1 mps 738 mmHg 34%
    16:00 +24°C° 0 mm 1 mps 738 mmHg 39%
    17:00 +22°C° 0 mm 1 mps 737 mmHg 43%
    18:00 +21°C° 0 mm 1 mps 737 mmHg 46%
    19:00 +20°C° 0 mm 1 mps 737 mmHg 48%
    20:00 +19°C° 0 mm 1 mps 737 mmHg 51%
    21:00 +18°C° 0 mm 1 mps 737 mmHg 51%
    22:00 +18°C° 0 mm 1 mps 737 mmHg 51%
    23:00 +18°C° 0 mm 1 mps 737 mmHg 52%
    Show more